User: anonymous   Login
Location: Cheching
(60.0667°N, 164.2167°W)
Time: 00:47:56
(UTC+00:00)
Language:

NOAA 15 - Orbit

View from above orbital plane
View from above orbital plane
View from above satellite
View from above satellite

Ground track
Ground track

The orbit data is extracted from the following two-line orbital elements,

1 25338U 98030A   21023.82670763  .00000032  00000-0  31837-4 0  9999
2 25338  98.6981  53.5294 0010076 347.4543  12.6385 14.26009771180636
Epoch (UTC): 23 January 2021 19:50:27
Eccentricity: 0.0010076
inclination: 98.6981°
perigee height: 798 km
apogee height: 812 km
right ascension of ascending node: 53.5294°
argument of perigee: 347.4543°
revolutions per day: 14.26009771
mean anomaly at epoch: 12.6385°
orbit number at epoch: 18063

The dashed part of the orbit path shows where the satellite is in the earth's shadow,  

DLR